Buffalo, WY (82834)

1:25 PM MDT on July 27, 2016 (GMT -0600)
Buffalo | | Change Station

Elev 4708 ft 44.34 °N, 106.70 °W | Updated 9 seconds ago

Clear
Clear
83.5 °F
Feels Like 82 °F
N
2.7
Wind Variable Wind from NNW
Gusts 4.9 mph

Today
High -- | Low -- °F
--% Chance of Precip.
Yesterday
High -- | Low -- °F
Precip. -- in
Pressure 30.01 in
Visibility 10.0 miles
Clouds Clear
Heat Index 82 °F
Dew Point 53 °F
Humidity 35%
Rainfall 0.00 in
Snow Depth Not available.
5:49 AM 8:36 PM
Last Quarter, 40% visible
METAR KBYG 271853Z AUTO VRB05KT 10SM CLR 28/11 A3020 RMK AO2 SLP162 T02780111
Pressure 30.01 in
Visibility 10.0 miles
Clouds Clear
Heat Index 82 °F
Dew Point 53 °F
Humidity 35%
Rainfall 0.00 in
Snow Depth Not available.
5:49 AM 8:36 PM
Last Quarter, 40% visible
METAR KBYG 271853Z AUTO VRB05KT 10SM CLR 28/11 A3020 RMK AO2 SLP162 T02780111

10-Day Weather Forecast

Almanac

Astronomy

Jul. 27, 2016 Rise Set
Actual Time
Civil Twilight
Nautical Twilight
Astronomical Twilight
Moon
Length of Visible Light
Length of Day
Tomorrow will be .
, % of the Moon is Illuminated

Today's Extremes

State Highs State Lows

Community

WunderPhotos

Upload Photos

1,927,915 photos uploaded!

WunderBlog® & News

Nearby

Air Quality

  Air Quality AQ Index Pollutant
Not available.

Snow Depth

Station Depth Elevation

Earthquake Activity

City Distance Mag. Time & Date
Minimum magnitude displayed is 2.5.

Coastal Water Temperatures

Place Temperature

Stations

Nearby Weather Stations

Station Location Temp. Windchill Dew Point Humidity Wind Precip. Elev Updated Type
                   

Watches & Warnings

There are currently no watches in effect.